This demonstration page uses our WeatherBlox Daily Observations layout. Learn more.

38.89511, -77.03637

Hourly Observations for November 4, 2017

Temp ( °F °C ) Dew Point ( °F °C ) Humidity (%) Winds ( mph kmh ) Pressure ( in mb ) Visibility ( mi km ) Precip ( " mm )
12:52 am 00:52 Clear 60 15.6 51 10.6 72 72 NE 16 26 30.21 1023 10 16.09344 0 0
1:52 am 01:52 Mostly Cloudy 57 13.9 46 7.8 67 67 NNE 15 24 30.21 1023 10 16.09344 0 0
2:52 am 02:52 Mostly Cloudy 56 13.3 43 6.1 62 62 NE 13 20 30.24 1024 10 16.09344 0 0
3:52 am 03:52 Mostly Cloudy 54 12.2 43 6.1 67 67 NNE 9 15 30.27 1025 10 16.09344 0 0
4:52 am 04:52 Mostly Cloudy 53 11.7 42 5.6 66 66 NNE 14 22 30.27 1025 10 16.09344 0 0
5:52 am 05:52 Mostly Cloudy 52 11.1 42 5.6 69 69 NNE 14 22 30.27 1025 10 16.09344 0 0
6:52 am 06:52 Mostly Cloudy 51 10.6 40 4.4 66 66 NNE 10 17 30.3 1026 10 16.09344 0 0
7:52 am 07:52 Mostly Cloudy 50 10 39 3.9 66 66 NNE 12 19 30.3 1026 10 16.09344 0 0
8:52 am 08:52 Mostly Cloudy 49 9.4 38 3.3 66 66 NE 12 19 30.33 1027 10 16.09344 0 0
9:52 am 09:52 Cloudy 50 10 39 3.9 66 66 NNE 10 17 30.36 1028 10 16.09344 0 0
10:52 am 10:52 Cloudy 51 10.6 40 4.4 66 66 NE 7 11 30.33 1027 10 16.09344 0 0
11:52 am 11:52 Mostly Cloudy 54 12.2 41 5 62 62 NE 9 15 30.33 1027 10 16.09344 0 0
12:52 pm 12:52 Mostly Cloudy 57 13.9 41 5 55 55 NE 5 7 30.3 1026 10 16.09344 0 0
1:52 pm 13:52 Cloudy 57 13.9 43 6.1 60 60 NNE 6 9 30.27 1025 10 16.09344 0 0
2:52 pm 14:52 Mostly Cloudy 60 15.6 44 6.7 56 56 ENE 5 7 30.24 1024 10 16.09344 0 0
3:52 pm 15:52 Cloudy 59 15 46 7.8 62 62 E 8 13 30.24 1024 10 16.09344 0 0
4:52 pm 16:52 Mostly Cloudy with Light Rain 57 13.9 46 7.8 67 67 ESE 10 17 30.24 1024 10 16.09344 0.001 0.001
5:52 pm 17:52 Cloudy with Light Rain 56 13.3 47 8.3 72 72 E 7 11 30.24 1024 10 16.09344 0.001 0.001
6:52 pm 18:52 Cloudy with Light Rain 56 13.3 48 8.9 75 75 ENE 3 6 30.24 1024 10 16.09344 0.001 0.001
7:52 pm 19:52 Cloudy with Light Rain 54 12.2 50 10 87 87 NE 3 6 30.24 1024 10 16.09344 0.08 2.032
8:36 pm 20:36 Cloudy with Light Rain 53 11.7 51 10.6 93 93 N 5 7 30.24 1024 10 16.09344 0.1 2.54
8:52 pm 20:52 Cloudy with Rain 53 11.7 51 10.6 93 93 NE 6 9 30.21 1023 6 9.656064 0.13 3.302
9:31 pm 21:31 Cloudy with Light Rain 53 11.7 52 11.1 96 96 WNW 8 13 30.24 1024 9 14.484096 0.09 2.286
9:52 pm 21:52 Cloudy with Heavy Rain 53 11.7 52 11.1 96 96 WNW 5 7 30.24 1024 4 6.437376 0.15 3.81
10:01 pm 22:01 Cloudy with Rain 54 12.2 53 11.7 97 97 Calm 30.27 1025 4 6.437376 0.04 1.016
10:13 pm 22:13 Cloudy with Heavy Rain 54 12.2 52 11.1 93 93 Calm 30.27 1025 2.5 4.02336 0.11 2.794
10:15 pm 22:15 Cloudy with Rain 54 12.2 52 11.1 93 93 Calm 30.27 1025 3 4.828032 0.12 3.048
10:24 pm 22:24 Cloudy with Light Rain 54 12.2 52 11.1 93 93 Calm 30.27 1025 6 9.656064 0.14 3.556
10:52 pm 22:52 Cloudy with Light Rain 54 12.2 53 11.7 97 97 N 3 6 30.24 1024 9 14.484096 0.15 3.81
11:52 pm 23:52 Cloudy with Light Drizzle 54 12.2 54 12.2 100 100 NNE 5 7 30.24 1024 10 16.09344 0.06 1.524

Powered by AerisWeather